[Iaude] MPEC L147: 2024 LC5 [a=17.70,e=0.64,i=33.4,H=13.4]
    mpec at cfa.harvard.edu 
    mpec at cfa.harvard.edu
       
    Sat Jun 15 14:09:41 EDT 2024
    
    
  
M.P.E.C. 2024-L147                                Issued 2024 June 15, 18:08 UT
     The Minor Planet Electronic Circulars contain information on unusual
         minor planets, routine data on comets and natural satellites,
         and occasional editorial announcements.  They are published
    on behalf of Division F of the International Astronomical Union by the
          Minor Planet Center, Smithsonian Astrophysical Observatory,
                          Cambridge, MA 02138, U.S.A.
			  
             Prepared using the Tamkin Foundation Computer Network
                              MPC at CFA.HARVARD.EDU
            URL https://www.minorplanetcenter.net/    ISSN 1523-6714
                                    2024 LC5                                    
Observations:
     K24L05C 1C2024 05 18.43985 21 18 51.89 +02 49 20.9                VEL147G96
     K24L05C 1C2024 05 18.45564 21 18 52.04 +02 49 26.3          21.9 GVEL147G96
     K24L05C* C2024 06 07.41503221 19 30.176+04 42 06.88         21.62GVEL147V00
     K24L05C  C2024 06 07.42067321 19 30.166+04 42 08.78         21.93GVEL147V00
     K24L05C  C2024 06 07.42628321 19 30.155+04 42 10.55         21.89GVEL147V00
     K24L05C  C2024 06 07.43188621 19 30.130+04 42 12.49         21.47GVEL147V00
     K24L05C  C2024 06 07.52231821 19 29.795+04 42 41.25         22.16wXEL147F52
     K24L05C  C2024 06 07.53479521 19 29.729+04 42 45.27         22.01wXEL147F52
     K24L05C  C2024 06 07.54732621 19 29.679+04 42 49.10         21.71wXEL147F52
     K24L05C  C2024 06 07.55985021 19 29.624+04 42 52.90         21.72wXEL147F52
     K24L05C 3C2024 06 11.57620221 19 08.904+05 03 33.98         21.36GVEL147T14
     K24L05C 3C2024 06 11.57741121 19 08.897+05 03 34.37         21.40GVEL147T14
     K24L05C 3C2024 06 11.57862321 19 08.889+05 03 34.74         21.30GVEL147T14
     K24L05C KC2024 06 12.34252821 19 03.94 +05 07 24.8          21.7 GVEL147H21
     K24L05C KC2024 06 12.34975521 19 03.88 +05 07 27.2          21.9 GVEL147H21
     K24L05C KC2024 06 15.33556721 18 41.25 +05 22 10.8          21.5 GVEL147H21
     K24L05C KC2024 06 15.34410121 18 41.19 +05 22 13.2          21.1 GVEL147H21
     K24L05C KC2024 06 15.34978921 18 41.15 +05 22 14.6          21.4 GVEL147H21
Observer details:
F52 Pan-STARRS 2, Haleakala.  Observers J. Herman, T. Lowe, P. Minguez, A.
    Schultz, I. Smith.  Measurers K. Chambers, T. de Boer, J. Fairlamb, H.
    Gao, M. Huber, C.-C. Lin, E. Magnier, Y. Ramanjooloo, R. Wainscoat, R.
    Weryk.  1.8-m Ritchey-Chretien + CCD.
G96 Mt. Lemmon Survey.  Observer V. F. Carvajal.  Measurers B. Gray, D.
    Rankin, F. C. Shelly.  1.5-m reflector + 10K CCD.
H21 Astronomical Research Observatory, Westfield.  Observer R. Holmes.
    Measurers T. Linder, R. Holmes, L. Horn.  1.3-m f/4.0 astrograph + CCD,
    0.81-m f/4.0 astrograph + CCD.
T14 Canada-France-Hawaii Telescope, Maunakea.  Observers R. Wainscoat, A.
    Acohido, H. Flewelling.  Measurers R. Weryk, R. Wainscoat.  3.6-m f/4.1
    reflector + CCD.
V00 Kitt Peak-Bok.  Observer V. F. Carvajal.  Measurers M. J. Brucker, C. E.
    Woodward, T. Beuden, V. F. Carvajal, D. Fay, J. B. Fazekas, D. C. Fuls, A.
    R. Gibbs, H. Groeller, J. K. Hogan, R. A. Kowalski, S. M. Larson, C.
    Lejoly, G. J. Leonard, R. A. Mastaler, R. S. McMillan, D. Rankin, R. L.
    Seaman, F. C. Shelly, K. W. Wierzchos.  2.25-m reflector + 4x4K mosaic
    CCD.
Orbital elements:
2024 LC5                                                                        
Epoch 2024 Mar. 31.0 TT = JDT 2460400.5                 Bell                    
M 359.21398              (2000.0)            P               Q                  
n   0.01323095     Peri.   33.19433     +0.66491584     +0.52567268             
a  17.7041651      Node   285.58207     -0.74690228     +0.47260118             
e   0.6444237      Incl.   33.42629     +0.00488995     +0.70733045             
P  74.5            H   13.46          G   0.15           U   6                  
Residuals in seconds of arc
240518 G96  0.4-  0.2+    240607 F52  0.1+  0.1+    240611 T14  0.3-  0.1-
240518 G96  0.2+  0.1-    240607 F52  0.0   0.2+    240612 H21  0.1-  0.1-
240607 V00  0.3-  0.2-    240607 F52  0.1+  0.1+    240612 H21  0.2-  0.1+
240607 V00  0.1-  0.1-    240607 F52  0.1+  0.1-    240615 H21  0.0   0.2+
240607 V00  0.1+  0.1-    240611 T14  0.3-  0.1-    240615 H21  0.2+  0.1+
240607 V00  0.1+  0.1+    240611 T14  0.3-  0.1-    240615 H21  0.4+  0.2-
Ephemeris:
2024 LC5                 a,e,i = 17.70, 0.64, 33                 q = 6.2952
Date    TT    R. A. (2000) Decl.     Delta      r    Elong.  Phase     V
2024 05 16    21 18 31.5 +02 34 43   6.1736  6.2956    92.3     9.2    22.0
...
2024 05 31    21 19 43.0 +04 01 58   5.9534  6.2952   105.2     8.9    21.9
...
2024 06 08    21 19 27.8 +04 45 11   5.8427  6.2954   112.1     8.6    21.9
...
2024 06 14    21 18 52.0 +05 15 40   5.7645  6.2958   117.3     8.2    21.8
2024 06 15    21 18 44.0 +05 20 33   5.7519  6.2958   118.2     8.2    21.8
2024 06 16    21 18 35.5 +05 25 24   5.7395  6.2959   119.1     8.1    21.8
...
2024 06 22    21 17 32.9 +05 53 16   5.6680  6.2965   124.3     7.7    21.8
...
2024 06 30    21 15 40.1 +06 26 57   5.5823  6.2976   131.1     7.0    21.7
...
2024 07 15    21 10 49.9 +07 17 54   5.4565  6.3004   143.3     5.5    21.6
M. P. C. Staff               (C) Copyright 2024 MPC           M.P.E.C. 2024-L147
    
    
More information about the Iaude
mailing list